Regional Weather Roundup
Issued by NWS Kansas City/Pleasant Hill, MO

Home | Current Version | Previous Version | Text Only | Print | Product List | Glossary On
Versions: 1 2 3 4 5 6 7 8 9 10 11 12 13 14 15 16 17 18 19 20 21 22 23 24 25 26 27 28 29 30 31 32 33 34 35 36 37 38 39 40 41 42 43 44 45 46 47 48 49 50
000
ASUS43 KEAX 300410
RWREAX

WEATHER ROUNDUP FOR EASTERN KANSAS AND NORTHWEST MISSOURI
NATIONAL WEATHER SERVICE KANSAS CITY/PLEASANT HILL MO
1100 PM CDT SAT APR 29 2017

KSZ040-057-103>105-MOZ028-029-037-043-300500-
...KANSAS CITY METROPOLITAN AREA...

CITY           SKY/WX    TMP DP  RH WIND       PRES   REMARKS
K.C. INTL      LGT RAIN  43  42  97 E28G36    29.74F WCI  33
K.C. DOWNTOWN  RAIN     N/A N/A N/A E16G26    29.81F
LEES SUMMIT    RAIN      44  44 100 NE12      29.85R
OLATHE - IXD   LGT RAIN  45  43  93 E15G21    29.71F
OLATHE - OJC   RAIN      43  43 100 E21G26    29.74F FOG     WCI  34
LAWRENCE       LGT RAIN  45  44  97 NE17G23   29.75F

$$

MOZ001>008-011>017-020>025-030>033-038>040-044>046-053-054-300500-
...NORTHERN AND CENTRAL MISSOURI...

CITY           SKY/WX    TMP DP  RH WIND       PRES   REMARKS
ST. JOSEPH     CLOUDY    44  44 100 N14G23    29.89R
MOSBY          RAIN      43  43 100 N8        29.89R
WHITEMAN AFB   HVY RAIN  46  46 100 N10       29.82S
CLINTON        HVY RAIN  50  50 100 N13G18    29.82R
SEDALIA        LGT RAIN  49  49 100 N9        29.85R
WARSAW         NOT AVBL
CHILLICOTHE      N/A     44  42  93 VRB5      29.90F
KIRKSVILLE     LGT RAIN  42  31  64 NE13      29.90F

$$

MOZ041-047>049-056>058-063>065-088>090-097-300500-
...EASTERN AND SOUTHERN MISSOURI...

CITY           SKY/WX    TMP DP  RH WIND       PRES   REMARKS
ST. LOUIS INTL LGT RAIN  54  51  90 E12       29.82F
SPIRIT OF STL  LGT RAIN  53  53 100 W7        29.84R
COLUMBIA       CLOUDY    50  50 100 NE7       29.81R
JEFFERSON CITY LGT RAIN  55  52  89 CALM      29.81R
ROLLA          RAIN      60  32  34 E14G23    29.78S
OSAGE BEACH    LGT RAIN  57  56  96 NE3       29.79R
SPRINGFIELD    RAIN      64  62  93 SE7       29.73R FOG
BRANSON        LGT RAIN  63  63 100 E10       29.73F
JOPLIN         RAIN      59  58  96 NE10G21   29.69F FOG

$$

IAZ060-094-KSZ022-034>040-054-083-096-NEZ052-066-093-300500-
...KANSAS...SOUTHEAST NEBRASKA AND IOWA...

CITY           SKY/WX    TMP DP  RH WIND       PRES   REMARKS
TOPEKA         LGT RAIN  45  44  97 N8        29.82F
MANHATTAN      CLOUDY    44  44 100 NE18G26   29.84R
EMPORIA        LGT RAIN  44  44 100 NE21G26   29.74F FOG
CHANUTE        RAIN      61  58  90 E22G37    29.59F FOG
WICHITA        LGT RAIN  45  44  97 NE24G35   29.70F FOG
OMAHA          LGT RAIN  42  36  79 NE18G26   30.01F WCI  34
LINCOLN        LGT RAIN  40  39  97 NE18G28   30.00S FOG     WCI  31
FALLS CITY     LGT RAIN  41  40  96 NE15G23   29.91F WCI  33
LAMONI         CLOUDY    41  40  96 NE17G24   29.94F FOG     WCI  32
DES MOINES     LGT RAIN  41  39  93 NE16G22   30.02R FOG     WCI  33

$$




USA.gov is the U.S. government's official web portal to all federal, state and local government web resources and services.